P/2003 SQ215 ( NEAT-LONEOS )

Japanese version
Home page
Updated on February 21, 2004

---------------------------------------------------------------------

* Profile

Discovery Date September 24 and 27, 2003
Magnitude 18.9 mag, 18.7 mag
Discoverer Near-Earth-Asteroid Tracking Team (Jet Propulsion Laboratory), Lowell Observatory Near-Earth Object Search

* Orbital Elements

Epoch 2004 Mar. 16.0 TT = JDT 2453080.5
T 2004 Mar. 24.22929 TT                                 MPC
q   2.3042255            (2000.0)            P               Q
n   0.07635464     Peri.  137.30288     +0.81661704     -0.56940714
a   5.5027413      Node   257.64057     +0.50005857     +0.77965414
e   0.5812586      Incl.    5.54594     +0.28823262     +0.26060492
P  12.91
>From 43 observations 2003 Sept. 18-2004 Jan. 19, mean residual 0".65.

* Finding Charts

* Magnitudes Graph

        m1 = 12.5 + 5 log d + 10.0 log r

---------------------------------------------------------------------

The orbital elements are published on M.P.E.C. 2004-B35.
The charts are made with StellaNavigator Ver.2.0 for Windows (AstroArts / ASCII).
The magnitudes graphs are made with Comet for Windows.

---------------------------------------------------------------------

Copyright(C) Seiichi Yoshida (comet@aerith.net). All rights reserved.